Volver al catálogo

ONEWEB-0409

ActivoComunicacionesPO
NORAD 50488·PAYLOAD·🇬🇧 United Kingdom

Lanzado Dec 27, 2021 desde Baikonur Cosmodrome

Loading…

Próximos Pases (próximas 24 horas)

TLE

ActualizadoSource: CelesTrak SupGP

Época: Sep 14, 2026, 14:52 UTC

1 50488C 21132V   26257.61998102  .00002946  00000+0  83224-2 0  2570
2 50488  87.8974   3.2793 0001744 111.3555 357.0170 13.11412361    18

Sigue ONEWEB-0409 en tiempo real con AllMySat

Download on the App Store